Back to catalog

FENGYUN 1C DEB

AlivePO
NORAD 41828·DEBRIS·🇨🇳 China

Launched May 10, 1999 from Taiyuan Satellite Launch Center

Loading…

Next Passes (next 24 hours)

TLE

FreshSource: Space-Track

Epoch: Sep 13, 2026, 09:32 UTC

1 41828U 99025EYF 26256.39763405  .00008907  00000-0  18330-2 0  9997
2 41828  98.9215  48.5863 0032490  61.9959 298.4520 14.60465706514627

Track FENGYUN 1C DEB in real time with AllMySat

Download on the App Store